星链-6165 (STARLINK-6165 )

导读

STARLINK-6165是美国太空探索技术公司(SpaceX)星链互联网星座的成员卫星,于2023年6月23日发射升空。该卫星运行在近地轨道,作为星链星座的一部分,旨在为全球偏远、缺乏传统网络基础设施的地区提供高速、低延迟的宽带互联网服务,助力实现全球网络覆盖目标。

基本信息
目录编号:
57127
目录名称:
STARLINK-6165
国际标识:
2023-090AC
轨道中心:
EARTH
卫星名称:
星链-6165
卫星全名:
星链-6165 (STARLINK-6165 )
卫星状态:
在轨 (已飞行1169 天)
发射日期:
2023-06-23 UTC
国别 :
美国 (US)
星等 :
--
轨道信息
数据来源 国际轨道数据
星历时间: 2026-09-02T04:01:40+0800
2天前
查看轨道信息
半长轴: 6861.213km
偏心率: 0.0001278
轨道倾角: 43.003°
近地点辐角 269.956°
升交点赤经 6.589°
平近点角 90.115°
近地点: 482.199km
远地点: 483.953km
周期: 94.267分钟
每日圈数: 15.275712
详细信息
固有亮度:
5
最大亮度:
2.4
卫星平台:
Starlink v1.5
覆盖范围:
全球
运营商:
太空探索技术公司
运营商所在国:
美国
制造商(研发单位):
太空探索技术公司
制造商所在国:
美国
使用方式:
暂无
卫星简介
星链(Starlink)计划是由太空探索技术公司(SpaceX)提出的一个巨型低轨卫星互联网星座项目,计划在2019年至2024年间在太空搭建由约1.2万颗卫星组成的“星链”网络,其中1584颗将部署在地球上空550千米处的近地轨道,并从2020年开始工作。该卫星仍在工作。
2D轨道图
3D轨道图
轨道高度分析图
轨道倾角分析图
轨道综合分析图
查看轨道综合分析图
交会数据列表
事件ID 空间交会对象 最接近时刻(TCA) 交会距离 交会风险概率(CRP) 交会风险指数(CRI) 操作
CDM_260904-012905-712706-213321
2026-09-04T
01:29:04+0000
0.698 km
远距离
6.601925E-5 中风险 0.71
CDM_260904-131505-712706-213321
2026-09-04T
13:15:13+0000
1.581 km
极远距离
4.332124E-6 低风险 0.48
CDM_260904-144905-712706-213321
2026-09-04T
14:49:22+0000
1.901 km
极远距离
2.537095E-6 低风险 0.43
CDM_260903-235405-712706-213321
2026-09-03T
23:54:55+0000
1.906 km
极远距离
2.52061E-6 低风险 0.43
CDM_260904-221805-712705-957221
2026-09-04T
22:18:53+0000
2.443 km
极远距离
1.152758E-6 低风险 0.36